Year,Month,Day,Hour,Minute,Value (Times are PST for temperature in C)
2021,08,14,00,00,21.00
2021,08,14,00,01,21.00
2021,08,14,00,02,20.90
2021,08,14,00,03,20.90
2021,08,14,00,04,20.90
2021,08,14,00,05,20.90
2021,08,14,00,06,20.90
2021,08,14,00,07,20.90
2021,08,14,00,08,20.80
2021,08,14,00,09,20.80
2021,08,14,00,10,20.80
2021,08,14,00,11,20.80
2021,08,14,00,12,20.80
2021,08,14,00,13,20.70
2021,08,14,00,14,20.70
2021,08,14,00,15,20.70
2021,08,14,00,16,20.70
2021,08,14,00,17,20.70
2021,08,14,00,18,20.70
2021,08,14,00,19,20.70
2021,08,14,00,20,20.70
2021,08,14,00,21,20.70
2021,08,14,00,22,20.70
2021,08,14,00,23,20.70
2021,08,14,00,24,20.60
2021,08,14,00,25,20.60
2021,08,14,00,26,20.60
2021,08,14,00,27,20.60
2021,08,14,00,28,20.60
2021,08,14,00,29,20.60
2021,08,14,00,30,20.60
2021,08,14,00,31,20.50
2021,08,14,00,32,20.50
2021,08,14,00,33,20.50
2021,08,14,00,34,20.50
2021,08,14,00,35,20.40
2021,08,14,00,36,20.40
2021,08,14,00,37,20.40
2021,08,14,00,38,20.40
2021,08,14,00,39,20.40
2021,08,14,00,40,20.40
2021,08,14,00,41,20.40
2021,08,14,00,42,20.40
2021,08,14,00,43,20.30
2021,08,14,00,44,20.30
2021,08,14,00,45,20.30
2021,08,14,00,46,20.30
2021,08,14,00,47,20.30
2021,08,14,00,48,20.30
2021,08,14,00,49,20.30
2021,08,14,00,50,20.30
2021,08,14,00,51,20.30
2021,08,14,00,52,20.30
2021,08,14,00,53,20.30
2021,08,14,00,54,20.20
2021,08,14,00,55,20.20
2021,08,14,00,56,20.20
2021,08,14,00,57,20.20
2021,08,14,00,58,20.20
2021,08,14,00,59,20.20
2021,08,14,01,00,20.20
2021,08,14,01,01,20.10
2021,08,14,01,02,20.10
2021,08,14,01,03,20.10
2021,08,14,01,04,20.10
2021,08,14,01,05,20.00
2021,08,14,01,06,20.00
2021,08,14,01,07,20.00
2021,08,14,01,08,20.00
2021,08,14,01,09,20.00
2021,08,14,01,10,19.90
2021,08,14,01,11,19.90
2021,08,14,01,12,19.90
2021,08,14,01,13,19.90
2021,08,14,01,14,19.90
2021,08,14,01,15,19.90
2021,08,14,01,16,19.80
2021,08,14,01,17,19.80
2021,08,14,01,18,19.80
2021,08,14,01,19,19.80
2021,08,14,01,20,19.80
2021,08,14,01,21,19.80
2021,08,14,01,22,19.80
2021,08,14,01,23,19.80
2021,08,14,01,24,19.70
2021,08,14,01,25,19.70
2021,08,14,01,26,19.70
2021,08,14,01,27,19.70
2021,08,14,01,28,19.70
2021,08,14,01,29,19.70
2021,08,14,01,30,19.70
2021,08,14,01,31,19.60
2021,08,14,01,32,19.70
2021,08,14,01,33,19.60
2021,08,14,01,34,19.60
2021,08,14,01,35,19.60
2021,08,14,01,36,19.60
2021,08,14,01,37,19.60
2021,08,14,01,38,19.60
2021,08,14,01,39,19.50
2021,08,14,01,40,19.50
2021,08,14,01,41,19.50
2021,08,14,01,42,19.50
2021,08,14,01,43,19.50
2021,08,14,01,44,19.50
2021,08,14,01,45,19.40
2021,08,14,01,46,19.40
2021,08,14,01,47,19.40
2021,08,14,01,48,19.40
2021,08,14,01,49,19.40
2021,08,14,01,50,19.50
2021,08,14,01,51,19.40
2021,08,14,01,52,19.40
2021,08,14,01,53,19.40
2021,08,14,01,54,19.40
2021,08,14,01,55,19.40
2021,08,14,01,56,19.40
2021,08,14,01,57,19.40
2021,08,14,01,58,19.40
2021,08,14,01,59,19.40
2021,08,14,02,00,19.40
2021,08,14,02,01,19.40
2021,08,14,02,02,19.40
2021,08,14,02,03,19.40
2021,08,14,02,04,19.30
2021,08,14,02,05,19.30
2021,08,14,02,06,19.30
2021,08,14,02,07,19.30
2021,08,14,02,08,19.30
2021,08,14,02,09,19.30
2021,08,14,02,10,19.20
2021,08,14,02,11,19.20
2021,08,14,02,12,19.20
2021,08,14,02,13,19.20
2021,08,14,02,14,19.20
2021,08,14,02,15,19.10
2021,08,14,02,16,19.10
2021,08,14,02,17,19.10
2021,08,14,02,18,19.10
2021,08,14,02,19,19.10
2021,08,14,02,20,19.00
2021,08,14,02,21,19.00
2021,08,14,02,22,19.00
2021,08,14,02,23,19.00
2021,08,14,02,24,19.00
2021,08,14,02,25,19.00
2021,08,14,02,26,18.90
2021,08,14,02,27,18.90
2021,08,14,02,28,18.90
2021,08,14,02,29,18.90
2021,08,14,02,30,18.90
2021,08,14,02,31,18.90
2021,08,14,02,32,18.90
2021,08,14,02,33,18.90
2021,08,14,02,34,18.80
2021,08,14,02,35,18.80
2021,08,14,02,36,18.80
2021,08,14,02,37,18.80
2021,08,14,02,38,18.80
2021,08,14,02,39,18.80
2021,08,14,02,40,18.70
2021,08,14,02,41,18.70
2021,08,14,02,42,18.70
2021,08,14,02,43,18.70
2021,08,14,02,44,18.70
2021,08,14,02,45,18.60
2021,08,14,02,46,18.60
2021,08,14,02,47,18.60
2021,08,14,02,48,18.60
2021,08,14,02,49,18.60
2021,08,14,02,50,18.50
2021,08,14,02,51,18.50
2021,08,14,02,52,18.50
2021,08,14,02,53,18.50
2021,08,14,02,54,18.50
2021,08,14,02,55,18.50
2021,08,14,02,56,18.40
2021,08,14,02,57,18.40
2021,08,14,02,58,18.40
2021,08,14,02,59,18.40
2021,08,14,03,00,18.40
2021,08,14,03,01,18.40
2021,08,14,03,02,18.30
2021,08,14,03,03,18.30
2021,08,14,03,04,18.30
2021,08,14,03,05,18.30
2021,08,14,03,06,18.30
2021,08,14,03,07,18.30
2021,08,14,03,08,18.30
2021,08,14,03,09,18.30
2021,08,14,03,10,18.30
2021,08,14,03,11,18.20
2021,08,14,03,12,18.20
2021,08,14,03,13,18.20
2021,08,14,03,14,18.20
2021,08,14,03,15,18.20
2021,08,14,03,16,18.20
2021,08,14,03,17,18.20
2021,08,14,03,18,18.20
2021,08,14,03,19,18.20
2021,08,14,03,20,18.20
2021,08,14,03,21,18.20
2021,08,14,03,22,18.20
2021,08,14,03,23,18.20
2021,08,14,03,24,18.20
2021,08,14,03,25,18.20
2021,08,14,03,26,18.10
2021,08,14,03,27,18.20
2021,08,14,03,28,18.10
2021,08,14,03,29,18.10
2021,08,14,03,30,18.10
2021,08,14,03,31,18.10
2021,08,14,03,32,18.10
2021,08,14,03,33,18.10
2021,08,14,03,34,18.10
2021,08,14,03,35,18.10
2021,08,14,03,36,18.10
2021,08,14,03,37,18.10
2021,08,14,03,38,18.10
2021,08,14,03,39,18.10
2021,08,14,03,40,18.10
2021,08,14,03,41,18.10
2021,08,14,03,42,18.10
2021,08,14,03,43,18.10
2021,08,14,03,44,18.10
2021,08,14,03,45,18.10
2021,08,14,03,46,18.10
2021,08,14,03,47,18.10
2021,08,14,03,48,18.10
2021,08,14,03,49,18.10
2021,08,14,03,50,18.10
2021,08,14,03,51,18.00
2021,08,14,03,52,18.00
2021,08,14,03,53,18.00
2021,08,14,03,54,18.00
2021,08,14,03,55,18.00
2021,08,14,03,56,17.90
2021,08,14,03,57,17.90
2021,08,14,03,58,17.90
2021,08,14,03,59,17.90
2021,08,14,04,00,17.90
2021,08,14,04,01,17.90
2021,08,14,04,02,17.90
2021,08,14,04,03,17.90
2021,08,14,04,04,17.90
2021,08,14,04,05,17.90
2021,08,14,04,06,17.90
2021,08,14,04,07,17.80
2021,08,14,04,08,17.80
2021,08,14,04,09,17.80
2021,08,14,04,10,17.80
2021,08,14,04,11,17.80
2021,08,14,04,12,17.80
2021,08,14,04,13,17.80
2021,08,14,04,14,17.80
2021,08,14,04,15,17.80
2021,08,14,04,16,17.80
2021,08,14,04,17,17.80
2021,08,14,04,18,17.80
2021,08,14,04,19,17.80
2021,08,14,04,20,17.80
2021,08,14,04,21,17.80
2021,08,14,04,22,17.80
2021,08,14,04,23,17.80
2021,08,14,04,24,17.80
2021,08,14,04,25,17.80
2021,08,14,04,26,17.70
2021,08,14,04,27,17.70
2021,08,14,04,28,17.70
2021,08,14,04,29,17.70
2021,08,14,04,30,17.70
2021,08,14,04,31,17.70
2021,08,14,04,32,17.70
2021,08,14,04,33,17.70
2021,08,14,04,34,17.70
2021,08,14,04,35,17.70
2021,08,14,04,36,17.60
2021,08,14,04,37,17.60
2021,08,14,04,38,17.60
2021,08,14,04,39,17.60
2021,08,14,04,40,17.60
2021,08,14,04,41,17.60
2021,08,14,04,42,17.60
2021,08,14,04,43,17.50
2021,08,14,04,44,17.50
2021,08,14,04,45,17.50
2021,08,14,04,46,17.50
2021,08,14,04,47,17.50
2021,08,14,04,48,17.50
2021,08,14,04,49,17.40
2021,08,14,04,50,17.40
2021,08,14,04,51,17.40
2021,08,14,04,52,17.40
2021,08,14,04,53,17.40
2021,08,14,04,54,17.40
2021,08,14,04,55,17.40
2021,08,14,04,56,17.40
2021,08,14,04,57,17.40
2021,08,14,04,58,17.30
2021,08,14,04,59,17.30
2021,08,14,05,00,17.30
2021,08,14,05,01,17.30
2021,08,14,05,02,17.30
2021,08,14,05,03,17.30
2021,08,14,05,04,17.30
2021,08,14,05,05,17.20
2021,08,14,05,06,17.30
2021,08,14,05,07,17.20
2021,08,14,05,08,17.30
2021,08,14,05,09,17.30
2021,08,14,05,10,17.20
2021,08,14,05,11,17.20
2021,08,14,05,12,17.20
2021,08,14,05,13,17.20
2021,08,14,05,14,17.20
2021,08,14,05,15,17.20
2021,08,14,05,16,17.20
2021,08,14,05,17,17.20
2021,08,14,05,18,17.20
2021,08,14,05,19,17.20
2021,08,14,05,20,17.20
2021,08,14,05,21,17.20
2021,08,14,05,22,17.10
2021,08,14,05,23,17.20
2021,08,14,05,24,17.20
2021,08,14,05,25,17.20
2021,08,14,05,26,17.20
2021,08,14,05,27,17.20
2021,08,14,05,28,17.20
2021,08,14,05,29,17.20
2021,08,14,05,30,17.20
2021,08,14,05,31,17.20
2021,08,14,05,32,17.20
2021,08,14,05,33,17.20
2021,08,14,05,34,17.20
2021,08,14,05,35,17.20
2021,08,14,05,36,17.20
2021,08,14,05,37,17.20
2021,08,14,05,38,17.20
2021,08,14,05,39,17.20
2021,08,14,05,40,17.20
2021,08,14,05,41,17.20
2021,08,14,05,42,17.20
2021,08,14,05,43,17.20
2021,08,14,05,44,17.10
2021,08,14,05,45,17.10
2021,08,14,05,46,17.10
2021,08,14,05,47,17.10
2021,08,14,05,48,17.10
2021,08,14,05,49,17.10
2021,08,14,05,50,17.10
2021,08,14,05,51,17.10
2021,08,14,05,52,17.10
2021,08,14,05,53,17.00
2021,08,14,05,54,17.00
2021,08,14,05,55,17.00
2021,08,14,05,56,17.00
2021,08,14,05,57,17.00
2021,08,14,05,58,16.90
2021,08,14,05,59,16.90
2021,08,14,06,00,16.90
2021,08,14,06,01,16.90
2021,08,14,06,02,16.90
2021,08,14,06,03,16.90
2021,08,14,06,04,16.90
2021,08,14,06,05,16.90
2021,08,14,06,06,16.90
2021,08,14,06,07,16.90
2021,08,14,06,08,16.80
2021,08,14,06,09,16.80
2021,08,14,06,10,16.80
2021,08,14,06,11,16.80
2021,08,14,06,12,16.80
2021,08,14,06,13,16.80
2021,08,14,06,14,16.80
2021,08,14,06,15,16.80
2021,08,14,06,16,16.80
2021,08,14,06,17,16.80
2021,08,14,06,18,16.80
2021,08,14,06,19,16.80
2021,08,14,06,20,16.80
2021,08,14,06,21,16.70
2021,08,14,06,22,16.70
2021,08,14,06,23,16.70
2021,08,14,06,24,16.70
2021,08,14,06,25,16.70
2021,08,14,06,26,16.70
2021,08,14,06,27,16.70
2021,08,14,06,28,16.70
2021,08,14,06,29,16.70
2021,08,14,06,30,16.70
2021,08,14,06,31,16.70
2021,08,14,06,32,16.70
2021,08,14,06,33,16.70
2021,08,14,06,34,16.70
2021,08,14,06,35,16.70
2021,08,14,06,36,16.70
2021,08,14,06,37,16.70
2021,08,14,06,38,16.70
2021,08,14,06,39,16.70
2021,08,14,06,40,16.70
2021,08,14,06,41,16.70
2021,08,14,06,42,16.70
2021,08,14,06,43,16.70
2021,08,14,06,44,16.70
2021,08,14,06,45,16.70
2021,08,14,06,46,16.70
2021,08,14,06,47,16.70
2021,08,14,06,48,16.70
2021,08,14,06,49,16.70
2021,08,14,06,50,16.70
2021,08,14,06,51,16.70
2021,08,14,06,52,16.70
2021,08,14,06,53,16.80
2021,08,14,06,54,16.80
2021,08,14,06,55,16.80
2021,08,14,06,56,16.80
2021,08,14,06,57,16.80
2021,08,14,06,58,16.90
2021,08,14,06,59,16.90
2021,08,14,07,00,16.90
2021,08,14,07,01,16.90
2021,08,14,07,02,16.90
2021,08,14,07,03,16.90
2021,08,14,07,04,16.90
2021,08,14,07,05,17.00
2021,08,14,07,06,17.00
2021,08,14,07,07,17.00
2021,08,14,07,08,17.00
2021,08,14,07,09,17.00
2021,08,14,07,10,17.00
2021,08,14,07,11,17.00
2021,08,14,07,12,17.00
2021,08,14,07,13,17.10
2021,08,14,07,14,17.10
2021,08,14,07,15,17.10
2021,08,14,07,16,17.10
2021,08,14,07,17,17.10
2021,08,14,07,18,17.10
2021,08,14,07,19,17.10
2021,08,14,07,20,17.20
2021,08,14,07,21,17.20
2021,08,14,07,22,17.20
2021,08,14,07,23,17.30
2021,08,14,07,24,17.30
2021,08,14,07,25,17.30
2021,08,14,07,26,17.40
2021,08,14,07,27,17.40
2021,08,14,07,28,17.50
2021,08,14,07,29,17.50
2021,08,14,07,30,17.60
2021,08,14,07,31,17.60
2021,08,14,07,32,17.70
2021,08,14,07,33,17.70
2021,08,14,07,34,17.70
2021,08,14,07,35,17.80
2021,08,14,07,36,17.80
2021,08,14,07,37,17.80
2021,08,14,07,38,17.90
2021,08,14,07,39,17.90
2021,08,14,07,40,17.90
2021,08,14,07,41,18.00
2021,08,14,07,42,18.00
2021,08,14,07,43,18.00
2021,08,14,07,44,18.10
2021,08,14,07,45,18.10
2021,08,14,07,46,18.20
2021,08,14,07,47,18.20
2021,08,14,07,48,18.20
2021,08,14,07,49,18.20
2021,08,14,07,50,18.30
2021,08,14,07,51,18.30
2021,08,14,07,52,18.40
2021,08,14,07,53,18.50
2021,08,14,07,54,18.50
2021,08,14,07,55,18.60
2021,08,14,07,56,18.60
2021,08,14,07,57,18.60
2021,08,14,07,58,18.60
2021,08,14,07,59,18.60
2021,08,14,08,00,18.70
2021,08,14,08,01,18.70
2021,08,14,08,02,18.70
2021,08,14,08,03,18.70
2021,08,14,08,04,18.70
2021,08,14,08,05,18.70
2021,08,14,08,06,18.70
2021,08,14,08,07,18.70
2021,08,14,08,08,18.70
2021,08,14,08,09,18.70
2021,08,14,08,10,18.70
2021,08,14,08,11,18.80
2021,08,14,08,12,18.80
2021,08,14,08,13,18.80
2021,08,14,08,14,18.80
2021,08,14,08,15,18.80
2021,08,14,08,16,18.80
2021,08,14,08,17,18.80
2021,08,14,08,18,18.90
2021,08,14,08,19,18.80
2021,08,14,08,20,18.80
2021,08,14,08,21,18.80
2021,08,14,08,22,18.90
2021,08,14,08,23,19.00
2021,08,14,08,24,19.00
2021,08,14,08,25,19.00
2021,08,14,08,26,19.10
2021,08,14,08,27,19.10
2021,08,14,08,28,19.10
2021,08,14,08,29,19.20
2021,08,14,08,30,19.20
2021,08,14,08,31,19.30
2021,08,14,08,32,19.30
2021,08,14,08,33,19.40
2021,08,14,08,34,19.50
2021,08,14,08,35,19.60
2021,08,14,08,36,19.60
2021,08,14,08,37,19.70
2021,08,14,08,38,19.70
2021,08,14,08,39,19.70
2021,08,14,08,40,19.70
2021,08,14,08,41,19.80
2021,08,14,08,42,19.80
2021,08,14,08,43,19.90
2021,08,14,08,44,19.90
2021,08,14,08,45,20.00
2021,08,14,08,46,20.10
2021,08,14,08,47,20.10
2021,08,14,08,48,20.20
2021,08,14,08,49,20.20
2021,08,14,08,50,20.30
2021,08,14,08,51,20.30
2021,08,14,08,52,20.30
2021,08,14,08,53,20.30
2021,08,14,08,54,20.30
2021,08,14,08,55,20.30
2021,08,14,08,56,20.30
2021,08,14,08,57,20.30
2021,08,14,08,58,20.30
2021,08,14,08,59,20.30
2021,08,14,09,00,20.20
2021,08,14,09,01,20.30
2021,08,14,09,02,20.30
2021,08,14,09,03,20.30
2021,08,14,09,04,20.30
2021,08,14,09,05,20.40
2021,08,14,09,06,20.50
2021,08,14,09,07,20.60
2021,08,14,09,08,20.70
2021,08,14,09,09,20.90
2021,08,14,09,10,20.90
2021,08,14,09,11,21.00
2021,08,14,09,12,21.10
2021,08,14,09,13,21.20
2021,08,14,09,14,21.30
2021,08,14,09,15,21.30
2021,08,14,09,16,21.40
2021,08,14,09,17,21.40
2021,08,14,09,18,21.50
2021,08,14,09,19,21.50
2021,08,14,09,20,21.60
2021,08,14,09,21,21.60
2021,08,14,09,22,21.60
2021,08,14,09,23,21.60
2021,08,14,09,24,21.70
2021,08,14,09,25,21.80
2021,08,14,09,26,21.90
2021,08,14,09,27,22.00
2021,08,14,09,28,22.10
2021,08,14,09,29,22.20
2021,08,14,09,30,22.30
2021,08,14,09,31,22.40
2021,08,14,09,32,22.40
2021,08,14,09,33,22.50
2021,08,14,09,34,22.60
2021,08,14,09,35,22.60
2021,08,14,09,36,22.70
2021,08,14,09,37,22.70
2021,08,14,09,38,22.80
2021,08,14,09,39,22.80
2021,08,14,09,40,22.80
2021,08,14,09,41,22.90
2021,08,14,09,42,22.90
2021,08,14,09,43,23.00
2021,08,14,09,44,23.10
2021,08,14,09,45,23.10
2021,08,14,09,46,23.20
2021,08,14,09,47,23.30
2021,08,14,09,48,23.50
2021,08,14,09,49,23.60
2021,08,14,09,50,23.60
2021,08,14,09,51,23.70
2021,08,14,09,52,23.70
2021,08,14,09,53,23.80
2021,08,14,09,54,23.80
2021,08,14,09,55,23.90
2021,08,14,09,56,24.00
2021,08,14,09,57,24.00
2021,08,14,09,58,24.00
2021,08,14,09,59,24.00
2021,08,14,10,00,24.00
2021,08,14,10,01,24.00
2021,08,14,10,02,24.10
2021,08,14,10,03,24.10
2021,08,14,10,04,24.00
2021,08,14,10,05,24.00
2021,08,14,10,06,24.10
2021,08,14,10,07,24.10
2021,08,14,10,08,24.10
2021,08,14,10,09,24.10
2021,08,14,10,10,24.20
2021,08,14,10,11,24.20
2021,08,14,10,12,24.20
2021,08,14,10,13,24.30
2021,08,14,10,14,24.30
2021,08,14,10,15,24.40
2021,08,14,10,16,24.40
2021,08,14,10,17,24.50
2021,08,14,10,18,24.50
2021,08,14,10,19,24.50
2021,08,14,10,20,24.50
2021,08,14,10,21,24.40
2021,08,14,10,22,24.30
2021,08,14,10,23,24.40
2021,08,14,10,24,24.50
2021,08,14,10,25,24.60
2021,08,14,10,26,24.70
2021,08,14,10,27,24.70
2021,08,14,10,28,24.60
2021,08,14,10,29,24.60
2021,08,14,10,30,24.50
2021,08,14,10,31,24.50
2021,08,14,10,32,24.40
2021,08,14,10,33,24.50
2021,08,14,10,34,24.50
2021,08,14,10,35,24.60
2021,08,14,10,36,24.70
2021,08,14,10,37,24.70
2021,08,14,10,38,24.80
2021,08,14,10,39,24.90
2021,08,14,10,40,25.00
2021,08,14,10,41,25.10
2021,08,14,10,42,25.20
2021,08,14,10,43,25.40
2021,08,14,10,44,25.40
2021,08,14,10,45,25.40
2021,08,14,10,46,25.40
2021,08,14,10,47,25.40
2021,08,14,10,48,25.30
2021,08,14,10,49,25.30
2021,08,14,10,50,25.30
2021,08,14,10,51,25.40
2021,08,14,10,52,25.40
2021,08,14,10,53,25.50
2021,08,14,10,54,25.60
2021,08,14,10,55,25.70
2021,08,14,10,56,25.80
2021,08,14,10,57,25.90
2021,08,14,10,58,26.00
2021,08,14,10,59,26.10
2021,08,14,11,00,26.10
2021,08,14,11,01,26.20
2021,08,14,11,02,26.30
2021,08,14,11,03,26.40
2021,08,14,11,04,26.50
2021,08,14,11,05,26.60
2021,08,14,11,06,26.70
2021,08,14,11,07,26.80
2021,08,14,11,08,26.90
2021,08,14,11,09,27.10
2021,08,14,11,10,27.20
2021,08,14,11,11,27.10
2021,08,14,11,12,27.00
2021,08,14,11,13,26.80
2021,08,14,11,14,26.70
2021,08,14,11,15,26.70
2021,08,14,11,16,26.60
2021,08,14,11,17,26.70
2021,08,14,11,18,26.80
2021,08,14,11,19,26.80
2021,08,14,11,20,26.90
2021,08,14,11,21,26.90
2021,08,14,11,22,26.90
2021,08,14,11,23,26.90
2021,08,14,11,24,26.80
2021,08,14,11,25,26.80
2021,08,14,11,26,26.80
2021,08,14,11,27,26.60
2021,08,14,11,28,26.40
2021,08,14,11,29,26.10
2021,08,14,11,30,25.90
2021,08,14,11,31,25.80
2021,08,14,11,32,25.70
2021,08,14,11,33,25.70
2021,08,14,11,34,25.70
2021,08,14,11,35,25.80
2021,08,14,11,36,25.80
2021,08,14,11,37,25.80
2021,08,14,11,38,25.70
2021,08,14,11,39,25.70
2021,08,14,11,40,25.60
2021,08,14,11,41,25.60
2021,08,14,11,42,25.60
2021,08,14,11,43,25.60
2021,08,14,11,44,25.70
2021,08,14,11,45,25.70
2021,08,14,11,46,25.70
2021,08,14,11,47,25.70
2021,08,14,11,48,25.60
2021,08,14,11,49,25.70
2021,08,14,11,50,25.80
2021,08,14,11,51,25.80
2021,08,14,11,52,26.00
2021,08,14,11,53,26.20
2021,08,14,11,54,26.40
2021,08,14,11,55,26.40
2021,08,14,11,56,26.40
2021,08,14,11,57,26.40
2021,08,14,11,58,26.40
2021,08,14,11,59,26.40
2021,08,14,12,00,26.50
2021,08,14,12,01,26.60
2021,08,14,12,02,26.60
2021,08,14,12,03,26.70
2021,08,14,12,04,26.80
2021,08,14,12,05,26.90
2021,08,14,12,06,26.80
2021,08,14,12,07,26.80
2021,08,14,12,08,26.80
2021,08,14,12,09,26.90
2021,08,14,12,10,26.80
2021,08,14,12,11,26.80
2021,08,14,12,12,26.80
2021,08,14,12,13,26.80
2021,08,14,12,14,26.90
2021,08,14,12,15,27.00
2021,08,14,12,16,27.00
2021,08,14,12,17,27.10
2021,08,14,12,18,27.10
2021,08,14,12,19,27.00
2021,08,14,12,20,27.00
2021,08,14,12,21,26.90
2021,08,14,12,22,26.90
2021,08,14,12,23,26.70
2021,08,14,12,24,26.60
2021,08,14,12,25,26.60
2021,08,14,12,26,26.70
2021,08,14,12,27,26.80
2021,08,14,12,28,26.80
2021,08,14,12,29,26.90
2021,08,14,12,30,27.00
2021,08,14,12,31,27.00
2021,08,14,12,32,27.10
2021,08,14,12,33,27.20
2021,08,14,12,34,27.30
2021,08,14,12,35,27.40
2021,08,14,12,36,27.50
2021,08,14,12,37,27.50
2021,08,14,12,38,27.50
2021,08,14,12,39,27.60
2021,08,14,12,40,27.60
2021,08,14,12,41,27.70
2021,08,14,12,42,27.80
2021,08,14,12,43,27.80
2021,08,14,12,44,27.80
2021,08,14,12,45,27.70
2021,08,14,12,46,27.60
2021,08,14,12,47,27.40
2021,08,14,12,48,27.30
2021,08,14,12,49,27.30
2021,08,14,12,50,27.30
2021,08,14,12,51,27.40
2021,08,14,12,52,27.30
2021,08,14,12,53,27.40
2021,08,14,12,54,27.40
2021,08,14,12,55,27.50
2021,08,14,12,56,27.60
2021,08,14,12,57,27.70
2021,08,14,12,58,27.90
2021,08,14,12,59,28.00
2021,08,14,13,00,28.10
2021,08,14,13,01,28.10
2021,08,14,13,02,28.10
2021,08,14,13,03,28.20
2021,08,14,13,04,27.90
2021,08,14,13,05,27.80
2021,08,14,13,06,27.90
2021,08,14,13,07,28.00
2021,08,14,13,08,28.10
2021,08,14,13,09,28.20
2021,08,14,13,10,28.30
2021,08,14,13,11,28.30
2021,08,14,13,12,28.40
2021,08,14,13,13,28.50
2021,08,14,13,14,28.50
2021,08,14,13,15,28.50
2021,08,14,13,16,28.50
2021,08,14,13,17,28.60
2021,08,14,13,18,28.70
2021,08,14,13,19,28.70
2021,08,14,13,20,28.80
2021,08,14,13,21,28.80
2021,08,14,13,22,29.00
2021,08,14,13,23,29.10
2021,08,14,13,24,29.10
2021,08,14,13,25,29.10
2021,08,14,13,26,29.00
2021,08,14,13,27,29.10
2021,08,14,13,28,29.00
2021,08,14,13,29,29.00
2021,08,14,13,30,28.90
2021,08,14,13,31,28.80
2021,08,14,13,32,28.80
2021,08,14,13,33,28.80
2021,08,14,13,34,28.70
2021,08,14,13,35,28.60
2021,08,14,13,36,28.60
2021,08,14,13,37,28.50
2021,08,14,13,38,28.40
2021,08,14,13,39,28.30
2021,08,14,13,40,28.20
2021,08,14,13,41,28.20
2021,08,14,13,42,28.10
2021,08,14,13,43,28.10
2021,08,14,13,44,28.00
2021,08,14,13,45,28.00
2021,08,14,13,46,28.10
2021,08,14,13,47,28.10
2021,08,14,13,48,28.20
2021,08,14,13,49,28.10
2021,08,14,13,50,28.10
2021,08,14,13,51,28.10
2021,08,14,13,52,28.20
2021,08,14,13,53,28.30
2021,08,14,13,54,28.30
2021,08,14,13,55,28.30
2021,08,14,13,56,28.30
2021,08,14,13,57,28.20
2021,08,14,13,58,28.20
2021,08,14,13,59,28.20
2021,08,14,14,00,28.20
2021,08,14,14,01,28.10
2021,08,14,14,02,28.10
2021,08,14,14,03,28.10
2021,08,14,14,04,28.10
2021,08,14,14,05,28.20
2021,08,14,14,06,28.20
2021,08,14,14,07,28.30
2021,08,14,14,08,28.40
2021,08,14,14,09,28.70
2021,08,14,14,10,28.80
2021,08,14,14,11,28.80
2021,08,14,14,12,28.70
2021,08,14,14,13,28.70
2021,08,14,14,14,28.70
2021,08,14,14,15,28.70
2021,08,14,14,16,28.80
2021,08,14,14,17,28.80
2021,08,14,14,18,28.80
2021,08,14,14,19,28.80
2021,08,14,14,20,28.80
2021,08,14,14,21,29.00
2021,08,14,14,22,29.10
2021,08,14,14,23,29.20
2021,08,14,14,24,29.20
2021,08,14,14,25,29.10
2021,08,14,14,26,29.10
2021,08,14,14,27,29.10
2021,08,14,14,28,28.90
2021,08,14,14,29,28.70
2021,08,14,14,30,28.70
2021,08,14,14,31,28.70
2021,08,14,14,32,28.70
2021,08,14,14,33,28.70
2021,08,14,14,34,28.60
2021,08,14,14,35,28.60
2021,08,14,14,36,28.60
2021,08,14,14,37,28.70
2021,08,14,14,38,28.80
2021,08,14,14,39,28.80
2021,08,14,14,40,28.80
2021,08,14,14,41,28.90
2021,08,14,14,42,29.00
2021,08,14,14,43,29.00
2021,08,14,14,44,29.00
2021,08,14,14,45,29.00
2021,08,14,14,46,28.90
2021,08,14,14,47,28.80
2021,08,14,14,48,28.70
2021,08,14,14,49,28.50
2021,08,14,14,50,28.40
2021,08,14,14,51,28.40
2021,08,14,14,52,28.40
2021,08,14,14,53,28.50
2021,08,14,14,54,28.70
2021,08,14,14,55,28.90
2021,08,14,14,56,28.90
2021,08,14,14,57,28.90
2021,08,14,14,58,28.90
2021,08,14,14,59,29.00
2021,08,14,15,00,29.00
2021,08,14,15,01,28.90
2021,08,14,15,02,28.80
2021,08,14,15,03,28.60
2021,08,14,15,04,28.60
2021,08,14,15,05,28.50
2021,08,14,15,06,28.40
2021,08,14,15,07,28.40
2021,08,14,15,08,28.40
2021,08,14,15,09,28.50
2021,08,14,15,10,28.50
2021,08,14,15,11,28.40
2021,08,14,15,12,28.40
2021,08,14,15,13,28.40
2021,08,14,15,14,28.40
2021,08,14,15,15,28.60
2021,08,14,15,16,28.80
2021,08,14,15,17,28.90
2021,08,14,15,18,29.00
2021,08,14,15,19,28.90
2021,08,14,15,20,28.90
2021,08,14,15,21,29.00
2021,08,14,15,22,29.10
2021,08,14,15,23,29.10
2021,08,14,15,24,29.00
2021,08,14,15,25,28.80
2021,08,14,15,26,28.80
2021,08,14,15,27,28.80
2021,08,14,15,28,28.70
2021,08,14,15,29,28.50
2021,08,14,15,30,28.40
2021,08,14,15,31,28.50
2021,08,14,15,32,28.60
2021,08,14,15,33,28.80
2021,08,14,15,34,28.80
2021,08,14,15,35,28.80
2021,08,14,15,36,28.70
2021,08,14,15,37,28.70
2021,08,14,15,38,28.60
2021,08,14,15,39,28.60
2021,08,14,15,40,28.60
2021,08,14,15,41,28.50
2021,08,14,15,42,28.40
2021,08,14,15,43,28.30
2021,08,14,15,44,28.30
2021,08,14,15,45,28.40
2021,08,14,15,46,28.40
2021,08,14,15,47,28.50
2021,08,14,15,48,28.60
2021,08,14,15,49,28.70
2021,08,14,15,50,28.80
2021,08,14,15,51,28.70
2021,08,14,15,52,28.60
2021,08,14,15,53,28.60
2021,08,14,15,54,28.40
2021,08,14,15,55,28.30
2021,08,14,15,56,28.20
2021,08,14,15,57,28.20
2021,08,14,15,58,28.20
2021,08,14,15,59,28.20
2021,08,14,16,00,28.20
2021,08,14,16,01,28.20
2021,08,14,16,02,28.40
2021,08,14,16,03,28.50
2021,08,14,16,04,28.60
2021,08,14,16,05,28.60
2021,08,14,16,06,28.60
2021,08,14,16,07,28.60
2021,08,14,16,08,28.60
2021,08,14,16,09,28.50
2021,08,14,16,10,28.30
2021,08,14,16,11,28.20
2021,08,14,16,12,28.20
2021,08,14,16,13,28.20
2021,08,14,16,14,28.40
2021,08,14,16,15,28.50
2021,08,14,16,16,28.70
2021,08,14,16,17,28.70
2021,08,14,16,18,28.90
2021,08,14,16,19,28.90
2021,08,14,16,20,28.90
2021,08,14,16,21,28.80
2021,08,14,16,22,28.80
2021,08,14,16,23,28.70
2021,08,14,16,24,28.60
2021,08,14,16,25,28.60
2021,08,14,16,26,28.60
2021,08,14,16,27,28.60
2021,08,14,16,28,28.50
2021,08,14,16,29,28.60
2021,08,14,16,30,28.70
2021,08,14,16,31,28.80
2021,08,14,16,32,28.80
2021,08,14,16,33,28.90
2021,08,14,16,34,28.90
2021,08,14,16,35,28.90
2021,08,14,16,36,29.00
2021,08,14,16,37,29.00
2021,08,14,16,38,29.00
2021,08,14,16,39,28.90
2021,08,14,16,40,28.80
2021,08,14,16,41,28.70
2021,08,14,16,42,28.70
2021,08,14,16,43,28.60
2021,08,14,16,44,28.60
2021,08,14,16,45,28.40
2021,08,14,16,46,28.30
2021,08,14,16,47,28.30
2021,08,14,16,48,28.30
2021,08,14,16,49,28.40
2021,08,14,16,50,28.50
2021,08,14,16,51,28.50
2021,08,14,16,52,28.50
2021,08,14,16,53,28.40
2021,08,14,16,54,28.40
2021,08,14,16,55,28.20
2021,08,14,16,56,28.10
2021,08,14,16,57,28.10
2021,08,14,16,58,28.10
2021,08,14,16,59,28.10
2021,08,14,17,00,28.20
2021,08,14,17,01,28.20
2021,08,14,17,02,28.20
2021,08,14,17,03,28.20
2021,08,14,17,04,28.20
2021,08,14,17,05,28.30
2021,08,14,17,06,28.30
2021,08,14,17,07,28.30
2021,08,14,17,08,28.20
2021,08,14,17,09,28.30
2021,08,14,17,10,28.40
2021,08,14,17,11,28.40
2021,08,14,17,12,28.40
2021,08,14,17,13,28.50
2021,08,14,17,14,28.50
2021,08,14,17,15,28.50
2021,08,14,17,16,28.50
2021,08,14,17,17,28.50
2021,08,14,17,18,28.40
2021,08,14,17,19,28.30